STARLINK-1118 (44948 NORAD) Tracking and Keplerian Element Data

This shows tracking and keplerian element data for the satellite.

Feedback or suggestion? Click here.




ElementValue
Catalog44948
NameSTARLINK-1118
Epoch Orbit655
Epoch Day48.58334491
Epoch Year2020
RAAN189.7269
Inclination52.9921
Eccentricity0.0001559
Argument of Perigee48.0576
Mean Anonmoly249.2197
Mean Motion15.91875871
Decay Rate0.01266247
L11 44948U 20001AL 20048.58334491 .01266247 74750-3 37948-2 0 9990
L22 44948 52.9921 189.7269 0001559 48.0576 249.2197 15.91875871 6553

Live tracking and technical data element details for STARLINK-1118 (NORAD 44948). STARLINK-1118 can be tracked NOW for your location showing map with azimuth and elevation plus other details from your city location.

Track the satellite on the map from your city or location and see movement details for azimuth, elevation, latitude, longitude, range, height, and movement on the map or in text.







IsCatalogInMostPopularTable: catalog: 44948, numindb: 8
Update: records affected: 1



GetName: 44948 STARLINK-1118

Hit Count: updated at: Tue, 18 Feb 2020 00:23:47 GMT